�N����,����,�~����,�C��,���x,�C��,����,���ϕ���,�ő�u�ԕ���,�ő厞����,���˗�,�I�_���x,�n�����x,�ő啗���N��,DTYPE
"16/10/23","00:10",0.0,16.7,87.8,1005.0,332.2,1.6,3.1,338.8,0.00,14.7,18.6,"00:06:16",1
"16/10/23","00:20",0.0,16.7,87.9,1005.2,334.1,1.5,2.4,343.1,0.00,14.7,18.3,"00:13:04",1
"16/10/23","00:30",0.0,16.6,87.9,1005.2,325.9,1.3,2.1,336.2,0.00,14.6,18.4,"00:23:44",1
"16/10/23","00:40",0.0,16.6,87.9,1005.0,306.2,1.1,2.4,338.3,0.00,14.6,18.6,"00:34:08",1
"16/10/23","00:50",0.0,16.5,87.9,1005.2,320.0,1.3,2.0,325.8,0.00,14.5,18.4,"00:41:28",1
"16/10/23","01:00",0.0,16.5,87.9,1005.0,309.5,1.3,1.9,318.8,0.00,14.5,18.5,"00:59:52",1
"16/10/23","01:10",0.0,16.5,87.7,1005.2,312.2,1.2,1.8,314.1,0.00,14.5,18.5,"01:02:56",1
"16/10/23","01:20",0.0,16.5,87.4,1005.0,281.7,1.0,1.6,321.5,0.00,14.4,18.5,"01:10:16",1
"16/10/23","01:30",0.0,16.4,87.3,1005.0,277.9,1.0,1.2,254.8,0.00,14.3,18.5,"01:20:56",1
"16/10/23","01:40",0.0,16.3,87.7,1005.2,280.7,1.0,1.7,243.9,0.00,14.3,18.4,"01:31:28",1
"16/10/23","01:50",0.0,16.1,88.5,1005.5,267.7,0.8,1.2,257.3,0.00,14.2,18.5,"01:47:20",1
"16/10/23","02:00",0.0,15.9,89.2,1004.8,305.2,0.8,1.7,337.2,0.00,14.2,18.6,"01:51:36",1
"16/10/23","02:10",0.0,15.8,89.9,1004.8,280.4,0.8,1.1,276.5,0.00,14.2,18.2,"02:01:04",1
"16/10/23","02:20",0.0,15.8,90.4,1005.0,321.0,1.2,1.8,344.2,0.00,14.3,18.4,"02:17:04",1
"16/10/23","02:30",0.0,15.7,90.9,1004.5,293.8,0.7,1.2,306.2,0.00,14.3,18.3,"02:29:04",1
"16/10/23","02:40",0.0,15.8,90.9,1005.0,295.4,1.1,2.4,284.4,0.00,14.4,18.3,"02:31:28",1
"16/10/23","02:50",0.0,16.0,90.4,1005.0,312.3,0.7,1.7,319.7,0.00,14.5,18.3,"02:46:24",1
"16/10/23","03:00",0.0,16.2,89.7,1005.0,314.7,1.1,1.8,322.1,0.00,14.5,18.2,"02:55:28",1
"16/10/23","03:10",0.0,16.3,88.8,1004.5,302.2,1.1,1.9,326.8,0.00,14.5,18.3,"03:08:00",1
"16/10/23","03:20",0.0,16.4,87.6,1004.8,307.0,1.2,1.9,315.3,0.00,14.4,18.4,"03:15:28",1
"16/10/23","03:30",0.0,16.4,87.0,1004.5,300.9,1.1,2.0,350.8,0.00,14.3,18.3,"03:28:16",1
"16/10/23","03:40",0.0,16.3,86.7,1004.5,307.0,1.2,2.1,344.2,0.00,14.1,18.1,"03:32:40",1
"16/10/23","03:50",0.0,16.4,86.5,1004.8,315.3,1.5,2.2,327.0,0.00,14.2,18.3,"03:42:48",1
"16/10/23","04:00",0.0,16.4,86.4,1004.8,313.9,1.2,2.4,336.8,0.00,14.2,18.2,"03:52:24",1
"16/10/23","04:10",0.0,16.5,86.3,1005.0,313.3,1.2,1.8,324.7,0.00,14.2,18.2,"04:06:24",1
"16/10/23","04:20",0.0,16.7,85.9,1004.8,305.6,1.0,1.9,315.5,0.00,14.4,18.0,"04:13:36",1
"16/10/23","04:30",0.0,16.7,85.3,1005.0,309.3,1.2,1.9,309.2,0.00,14.3,18.1,"04:20:24",1
"16/10/23","04:40",0.0,16.8,85.4,1004.8,291.4,0.8,1.8,314.5,0.00,14.4,18.2,"04:39:04",1
"16/10/23","04:50",0.0,16.8,85.4,1005.0,297.9,1.0,1.6,320.3,0.00,14.4,18.2,"04:40:56",1
"16/10/23","05:00",0.0,16.8,85.0,1004.8,297.6,1.0,1.4,323.9,0.00,14.3,18.2,"04:51:52",1
"16/10/23","05:10",0.0,16.9,84.3,1004.8,311.6,1.1,1.8,331.4,0.00,14.3,18.1,"05:05:20",1
"16/10/23","05:20",0.0,16.8,84.5,1005.2,300.3,1.0,1.4,322.7,0.00,14.2,18.3,"05:11:28",1
"16/10/23","05:30",0.0,16.6,84.8,1005.0,309.2,1.0,1.6,333.9,0.00,14.1,18.3,"05:27:52",1
"16/10/23","05:40",0.0,16.5,85.1,1005.0,307.0,1.0,2.2,339.5,0.00,14.0,18.1,"05:38:00",1
"16/10/23","05:50",0.0,16.4,85.4,1004.8,316.4,1.1,2.0,332.7,0.00,14.0,18.2,"05:46:48",1
"16/10/23","06:00",0.0,16.1,86.1,1005.0,313.3,0.8,2.0,336.8,0.00,13.8,18.1,"05:51:04",1
"16/10/23","06:10",0.0,15.7,86.9,1004.8,306.4,0.7,1.2,311.0,0.00,13.6,18.1,"06:06:56",1
"16/10/23","06:20",0.0,15.5,88.2,1005.5,322.1,0.8,1.4,324.1,0.00,13.6,18.0,"06:15:12",1
"16/10/23","06:30",0.0,15.2,89.4,1005.5,316.1,0.6,1.6,322.6,0.00,13.5,18.1,"06:20:40",1
"16/10/23","06:40",0.0,15.1,90.2,1005.2,331.1,0.6,1.3,330.7,0.00,13.5,18.1,"06:31:44",1
"16/10/23","06:50",0.0,15.1,90.3,1005.5,314.8,1.0,1.8,330.2,0.00,13.6,17.8,"06:49:28",1
"16/10/23","07:00",0.0,15.2,91.0,1005.0,312.6,1.0,1.4,340.8,0.01,13.8,18.0,"06:53:20",1
"16/10/23","07:10",0.0,15.8,90.2,1005.5,303.2,1.1,1.6,243.2,0.02,14.2,18.0,"07:02:16",1
"16/10/23","07:20",0.0,16.0,88.7,1005.7,317.1,1.0,1.9,328.9,0.02,14.2,17.9,"07:19:44",1
"16/10/23","07:30",0.0,16.5,84.5,1005.7,295.9,1.1,2.4,336.5,0.03,13.9,17.9,"07:23:44",1
"16/10/23","07:40",0.0,17.2,80.8,1006.0,317.2,0.8,1.8,336.8,0.06,13.9,18.1,"07:37:20",1
"16/10/23","07:50",0.0,18.0,73.4,1006.0,295.8,1.0,2.7,340.2,0.07,13.2,18.2,"07:40:02",1
"16/10/23","08:00",0.0,18.3,72.1,1006.0,335.4,1.6,3.1,335.5,0.05,13.2,17.9,"07:53:20",1
"16/10/23","08:10",0.0,18.3,71.1,1006.0,332.2,1.1,2.4,344.0,0.06,13.0,18.2,"08:03:04",1
"16/10/23","08:20",0.0,18.2,71.2,1006.0,333.0,1.5,2.7,331.9,0.05,12.9,18.4,"08:15:04",1
"16/10/23","08:30",0.0,18.4,70.0,1006.4,329.0,1.1,2.5,351.1,0.09,12.9,18.2,"08:23:28",1
"16/10/23","08:40",0.0,18.9,68.6,1006.0,330.5,1.2,1.9,341.3,0.13,13.0,18.4,"08:31:04",1
"16/10/23","08:50",0.0,18.9,71.2,1006.0,304.2,1.2,2.1,314.5,0.10,13.6,18.4,"08:43:44",1
"16/10/23","09:00",0.0,19.7,67.3,1006.2,280.9,1.0,1.8,244.4,0.18,13.5,18.5,"08:54:56",1
"16/10/23","09:10",0.0,19.6,66.7,1006.2,280.6,1.1,2.6,352.0,0.13,13.3,18.6,"09:08:16",1
"16/10/23","09:20",0.0,19.5,68.0,1005.7,323.8,1.2,3.1,338.4,0.13,13.5,18.6,"09:10:32",1
"16/10/23","09:30",0.0,19.7,69.8,1005.7,312.1,1.0,1.9,329.4,0.12,14.1,18.7,"09:20:24",1
"16/10/23","09:40",0.0,19.6,68.0,1006.0,298.0,1.3,2.8,333.7,0.11,13.6,18.8,"09:39:20",1
"16/10/23","09:50",0.0,19.7,67.8,1006.0,322.2,1.7,3.7,348.4,0.13,13.6,18.9,"09:44:32",1
"16/10/23","10:00",0.0,20.0,66.8,1006.0,308.1,1.2,2.8,352.2,0.16,13.7,19.0,"09:58:40",1
"16/10/23","10:10",0.0,19.7,66.9,1006.0,314.2,1.5,2.9,347.2,0.04,13.4,19.1,"10:08:00",1
"16/10/23","10:20",0.0,19.4,67.3,1005.7,337.2,2.3,4.7,341.0,0.10,13.2,18.9,"10:14:48",1
"16/10/23","10:30",0.0,19.9,67.0,1005.7,319.9,1.3,4.0,358.3,0.18,13.6,19.2,"10:23:04",1
"16/10/23","10:40",0.0,20.5,64.2,1006.2,303.5,1.5,3.2,356.8,0.27,13.6,19.2,"10:39:28",1
"16/10/23","10:50",0.0,21.9,59.5,1005.5,336.6,1.6,4.1,345.4,0.52,13.7,19.4,"10:42:56",1
"16/10/23","11:00",0.0,20.8,61.0,1005.7,343.2,1.3,3.2,349.3,0.24,13.1,19.6,"10:58:16",1
"16/10/23","11:10",0.0,20.6,63.9,1006.0,347.5,1.7,3.5,345.9,0.22,13.6,19.5,"11:05:28",1
"16/10/23","11:20",0.0,20.6,63.0,1005.7,335.0,1.5,4.3,337.6,0.18,13.4,19.7,"11:19:20",1
"16/10/23","11:30",0.0,20.0,65.0,1005.5,323.4,1.8,4.3,341.4,0.15,13.3,19.7,"11:20:16",1
"16/10/23","11:40",0.0,20.3,63.1,1005.2,304.6,1.3,4.1,359.6,0.19,13.1,19.8,"11:39:44",1
"16/10/23","11:50",0.0,20.3,64.0,1004.5,331.2,2.2,5.0,351.0,0.21,13.3,20.0,"11:41:20",1
"16/10/23","12:00",0.0,20.7,61.9,1005.5,335.0,0.8,2.0,334.5,0.12,13.2,19.9,"11:51:12",1
"16/10/23","12:10",0.0,20.3,63.4,1005.5,338.8,1.5,3.2,334.7,0.09,13.2,20.1,"12:06:40",1
"16/10/23","12:20",0.0,19.9,63.9,1005.2,333.5,1.8,3.9,344.3,0.12,12.9,19.9,"12:14:08",1
"16/10/23","12:30",0.0,20.2,63.7,1004.8,330.8,1.6,3.2,6.8,0.16,13.1,20.0,"12:24:32",1
"16/10/23","12:40",0.0,20.2,62.2,1004.5,331.8,1.5,4.2,344.0,0.13,12.8,20.1,"12:33:36",1
"16/10/23","12:50",0.0,20.2,63.3,1004.3,318.3,1.6,4.1,345.3,0.09,13.1,20.2,"12:45:04",1
"16/10/23","13:00",0.0,20.3,63.7,1004.5,321.4,1.8,4.9,344.4,0.19,13.2,20.1,"12:59:12",1
"16/10/23","13:10",0.0,20.1,63.8,1004.5,321.0,1.8,4.7,334.9,0.17,13.1,20.1,"13:09:44",1
"16/10/23","13:20",0.0,19.9,63.9,1004.1,333.9,2.0,4.0,333.4,0.11,12.9,20.2,"13:18:08",1
"16/10/23","13:30",0.0,19.9,65.6,1004.1,325.4,1.8,4.2,348.1,0.12,13.3,20.1,"13:20:32",1
"16/10/23","13:40",0.0,20.1,62.1,1004.1,342.4,1.6,3.4,343.9,0.10,12.7,20.1,"13:38:00",1
"16/10/23","13:50",0.0,20.2,62.8,1004.1,319.9,1.3,3.6,340.0,0.09,12.9,20.0,"13:49:28",1
"16/10/23","14:00",0.0,19.6,64.3,1004.3,328.9,2.0,4.7,351.6,0.02,12.7,20.1,"13:50:08",1
"16/10/23","14:10",0.0,19.3,66.5,1004.3,335.2,2.2,4.9,350.7,0.04,13.0,20.2,"14:05:28",1
"16/10/23","14:20",0.0,19.6,67.2,1004.1,328.3,1.5,3.2,326.4,0.09,13.4,20.0,"14:14:24",1
"16/10/23","14:30",0.0,19.8,66.4,1004.3,314.3,1.6,3.9,352.4,0.14,13.4,20.0,"14:29:04",1
"16/10/23","14:40",0.0,20.1,66.0,1004.3,307.7,1.2,4.8,350.2,0.16,13.6,20.1,"14:38:56",1
"16/10/23","14:50",0.0,20.3,64.2,1004.5,337.5,1.8,5.0,349.8,0.18,13.4,20.2,"14:42:16",1
"16/10/23","15:00",0.0,19.9,65.4,1004.5,332.3,1.6,2.9,346.4,0.10,13.3,20.2,"14:52:00",1
"16/10/23","15:10",0.0,19.8,65.6,1004.8,328.1,1.5,3.5,343.0,0.12,13.2,20.2,"15:08:28",1
"16/10/23","15:20",0.0,19.9,65.0,1004.5,313.3,1.5,3.2,317.2,0.08,13.2,20.3,"15:17:28",1
"16/10/23","15:30",0.0,19.5,66.3,1004.5,332.4,2.0,5.5,332.0,0.05,13.1,20.1,"15:20:24",1
"16/10/23","15:40",0.0,19.2,67.7,1004.8,318.2,1.7,3.1,308.4,0.02,13.1,20.0,"15:32:16",1
"16/10/23","15:50",0.0,18.8,68.5,1005.0,334.5,1.8,3.9,353.3,0.00,12.9,20.1,"15:46:48",1
"16/10/23","16:00",0.0,18.8,69.3,1004.8,327.4,1.2,3.2,342.1,0.03,13.1,20.2,"15:53:04",1
"16/10/23","16:10",0.0,18.7,69.5,1005.2,323.9,1.7,4.5,343.4,0.01,13.1,20.0,"16:05:04",1
"16/10/23","16:20",0.0,18.5,70.8,1005.5,333.2,1.3,2.9,344.0,0.01,13.1,19.7,"16:12:16",1
"16/10/23","16:30",0.0,18.4,70.8,1005.2,330.4,1.2,2.2,342.4,0.02,13.0,19.8,"16:27:12",1
"16/10/23","16:40",0.0,18.2,72.1,1005.5,319.1,1.2,2.0,311.0,0.00,13.1,19.9,"16:37:12",1
"16/10/23","16:50",0.0,18.0,72.1,1005.5,329.8,1.5,3.1,335.2,0.00,12.9,19.8,"16:46:00",1
"16/10/23","17:00",0.0,18.0,73.1,1006.0,324.6,1.2,2.6,352.1,0.00,13.2,19.8,"16:58:32",1
"16/10/23","17:10",0.0,17.7,74.5,1006.0,334.0,1.2,2.4,343.4,0.00,13.2,19.7,"17:06:40",1
"16/10/23","17:20",0.0,17.4,75.0,1006.0,319.4,1.0,1.8,347.8,0.00,13.0,19.6,"17:10:08",1
"16/10/23","17:30",0.0,17.3,75.7,1005.7,320.8,1.2,2.2,324.6,0.00,13.0,19.7,"17:22:56",1
"16/10/23","17:40",0.0,17.2,76.7,1006.0,327.2,1.2,2.1,353.1,0.00,13.1,19.4,"17:34:24",1
"16/10/23","17:50",0.0,17.0,76.6,1006.2,316.2,1.0,2.1,343.2,0.00,12.9,19.4,"17:49:44",1
"16/10/23","18:00",0.0,17.0,76.8,1006.4,305.4,1.0,2.0,356.7,0.00,12.9,19.4,"17:50:32",1
"16/10/23","18:10",0.0,16.9,77.0,1006.4,325.2,1.5,3.2,337.4,0.00,12.9,19.3,"18:07:44",1
"16/10/23","18:20",0.0,16.8,77.6,1006.4,310.9,1.1,1.7,347.5,0.00,12.9,19.3,"18:16:40",1
"16/10/23","18:30",0.0,16.7,77.6,1006.4,316.4,1.5,3.6,348.6,0.00,12.8,19.3,"18:28:40",1
"16/10/23","18:40",0.0,16.7,76.9,1006.0,323.6,1.3,2.9,20.1,0.00,12.7,19.0,"18:36:24",1
"16/10/23","18:50",0.0,16.6,77.2,1006.2,312.1,1.1,2.1,347.3,0.00,12.6,19.1,"18:46:32",1
"16/10/23","19:00",0.0,16.3,78.1,1006.2,307.8,1.0,2.0,313.8,0.00,12.5,19.0,"18:51:12",1
"16/10/23","19:10",0.0,16.0,79.0,1006.4,303.3,1.1,2.4,330.7,0.00,12.4,19.2,"19:04:00",1
"16/10/23","19:20",0.0,15.9,78.6,1006.7,307.9,1.0,1.9,318.0,0.00,12.2,18.9,"19:17:36",1
"16/10/23","19:30",0.0,15.7,78.6,1006.7,310.9,1.2,2.2,332.7,0.00,12.0,18.7,"19:27:20",1
"16/10/23","19:40",0.0,15.6,78.3,1006.4,303.5,0.8,1.7,322.0,0.00,11.9,18.8,"19:30:48",1
"16/10/23","19:50",0.0,15.1,80.0,1006.7,275.0,0.5,1.2,320.9,0.00,11.7,18.7,"19:48:00",1
"16/10/23","20:00",0.0,14.7,82.3,1006.9,309.8,1.1,1.7,325.2,0.00,11.8,18.4,"19:50:02",1
"16/10/23","20:10",0.0,14.4,83.7,1006.9,306.2,1.2,2.2,339.9,0.00,11.7,18.6,"20:05:04",1
"16/10/23","20:20",0.0,14.1,84.8,1006.9,313.0,1.1,1.8,3.7,0.00,11.6,18.4,"20:13:04",1
"16/10/23","20:30",0.0,13.5,85.9,1006.9,315.7,0.7,1.8,323.4,0.00,11.2,18.5,"20:29:44",1
"16/10/23","20:40",0.0,13.1,87.4,1007.1,315.5,1.1,1.8,340.1,0.00,11.1,18.2,"20:31:44",1
"16/10/23","20:50",0.0,12.8,88.5,1007.1,295.6,0.7,1.1,318.1,0.00,11.0,18.3,"20:42:08",1
"16/10/23","21:00",0.0,12.6,89.4,1007.1,319.2,1.0,2.0,334.0,0.00,10.9,18.0,"20:56:34",1
"16/10/23","21:10",0.0,12.5,90.0,1007.4,312.4,1.0,1.8,322.7,0.00,10.9,18.1,"21:00:48",1
"16/10/23","21:20",0.0,12.5,90.5,1007.4,311.8,1.2,2.5,342.3,0.00,11.0,18.0,"21:18:34",1
"16/10/23","21:30",0.0,12.5,89.9,1007.1,292.7,1.0,1.7,323.7,0.00,10.9,17.8,"21:21:36",1
"16/10/23","21:40",0.0,12.4,90.1,1007.4,314.4,1.0,1.8,335.5,0.00,10.9,17.8,"21:35:50",1
"16/10/23","21:50",0.0,12.2,90.5,1007.4,305.7,1.0,1.7,338.6,0.00,10.7,17.8,"21:40:40",1
"16/10/23","22:00",0.0,12.1,90.8,1007.4,308.1,1.1,2.5,345.3,0.00,10.7,17.7,"21:53:28",1
"16/10/23","22:10",0.0,11.8,91.7,1007.6,297.7,1.1,2.5,342.0,0.00,10.5,17.6,"22:09:48",1
"16/10/23","22:20",0.0,11.9,92.0,1007.6,313.3,1.1,1.9,333.4,0.00,10.7,17.6,"22:14:56",1
"16/10/23","22:30",0.0,11.8,91.8,1007.6,294.9,1.1,2.1,342.5,0.00,10.6,17.4,"22:23:48",1
"16/10/23","22:40",0.0,11.7,92.0,1008.1,304.3,1.2,2.0,343.2,0.00,10.5,17.5,"22:30:26",1
"16/10/23","22:50",0.0,11.5,92.3,1007.8,316.7,1.0,1.6,336.8,0.00,10.3,17.4,"22:40:42",1
"16/10/23","23:00",0.0,11.5,92.6,1007.8,300.5,0.7,2.2,243.3,0.00,10.4,17.3,"22:52:58",1
"16/10/23","23:10",0.0,11.6,92.4,1007.8,321.3,1.0,1.8,297.8,0.00,10.5,17.3,"23:08:28",1
"16/10/23","23:20",0.0,11.6,91.9,1007.6,308.1,0.8,1.7,324.7,0.00,10.4,17.2,"23:19:38",1
"16/10/23","23:30",0.0,11.6,91.8,1008.1,309.8,1.2,2.0,310.1,0.00,10.4,17.2,"23:24:44",1
"16/10/23","23:40",0.0,11.7,92.1,1007.8,310.1,1.2,2.7,238.5,0.00,10.5,17.2,"23:37:08",1
"16/10/23","23:50",0.0,11.8,90.5,1008.1,307.1,0.8,1.9,324.5,0.00,10.3,17.1,"23:42:08",1
"16/10/23","24:00",0.0,11.7,89.6,1008.1,303.5,0.8,1.7,311.3,0.00,10.1,17.0,"23:57:48",1
